[[{"header":{"parameterUnit":"m.s-1","parameterCategory":1,"la1":30.2991,"la2":30.254,"lo1":-89.0895,"lo2":-89.0444,"dy":0.0017,"dx":0.0017,"nx":28,"ny":28,"refTime":"2024-03-27T03:00:00:Z","depth":0,"parameterNumber":2,"parameterNumberName":"U-component_of_WINDS"},"data":[0,0,0,0,0,0,0,0,0,0,0,0,0,0,0,0,0,0,0,0,0,0,0,0,0,0,0,0,0,0,0,0,0,0,0,0,0,0,0,0,0,0,0,0,0,0,0,0,0,0,0,0,0,0,0,0,0,0,0.5826,0.5826,0,0.5845,0.5845,0.5845,0.5837,0.5836,0.5836,0.5835,0.5855,0.5856,0.5857,0,0,0,0,0,0,0,0,0,0,0,0,0,0.5784,0.5785,0.5826,0.5826,0.5826,0.5845,0.5845,0.5845,0.5837,0.5836,0.5835,0.5835,0.5855,0.5856,0.5857,0,0,0,0,0,0,0,0,0,0,0,0,0,0.5803,0.5785,0.5826,0.5824,0.5824,0.5845,0.5845,0.5845,0.5837,0.5836,0.5835,0.5835,0.5855,0.5856,0.5857,0.5881,0,0,0.5862,0.5863,0,0,0,0,0,0,0,0,0.5802,0.5804,0.5824,0.5824,0.5824,0.5838,0.5838,0.5857,0.5837,0.5832,0.5835,0.5834,0.585,0.5852,0.5857,0.5882,0.5883,0.5862,0.5863,0.5864,0.5864,0,0,0,0,0,0,0,0.58,0.5803,0.5833,0.5824,0.5825,0.5823,0.5825,0.5841,0.5845,0.5832,0.5832,0.5834,0.585,0.5856,0.5857,0.5883,0.5862,0.5863,0.5864,0.5865,0.5931,0.5931,0,0,0,0,0,0,0.5799,0.5802,0.5833,0.5834,0.5811,0.5825,0.5827,0.5834,0.5845,0.5846,0.5835,0.5834,0.5853,0.5856,0.5858,0.5888,0.5864,0.5865,0.5866,0.593,0.5931,0.5932,0,0,0,0,0,0,0.5798,0.5802,0.5832,0.5818,0.5822,0.5826,0.5834,0.5835,0.584,0.5846,0.5847,0.584,0.5853,0.5856,0.5876,0.5888,0.5866,0.5867,0.5929,0.593,0.5931,0.5947,0,0,0,0,0,0,0.5797,0.5801,0.581,0.5818,0.5822,0.5849,0.5835,0.5836,0.5843,0.5842,0.5851,0.5852,0.5853,0.5874,0.5877,0.589,0.5868,0.5928,0.5929,0.5931,0.5945,0.5948,0.5951,0,0,0,0,0,0.5795,0.5813,0.581,0.5814,0.5833,0.5849,0.5852,0.5852,0.5844,0.5853,0.5857,0.5852,0.5886,0.5876,0.588,0.5893,0.5927,0.5929,0.5931,0.5944,0.5948,0.5951,0,0,0,0,0,0,0.5806,0.5814,0.5811,0.5832,0.584,0.5848,0.5859,0.5856,0.5867,0.5865,0.5865,0.5867,0.5888,0.5892,0.588,0.5918,0.5905,0.5908,0.5914,0.5918,0.5921,0.592,0.5869,0,0,0,0,0,0.581,0.5822,0.5829,0.5847,0.5851,0.5855,0.5862,0.5861,0.587,0.5873,0.5879,0.5888,0.5901,0.5909,0.5922,0.5946,0.5949,0.5957,0.596,0.5962,0.5965,0.598,0.5985,0.5938,0.5938,0.5938,0,0,0.582,0.5826,0.5834,0.5849,0.5856,0.5869,0.5858,0.5872,0.5883,0.5876,0.5895,0.59,0.591,0.5932,0.5942,0.5937,0.5979,0.5965,0.5967,0.5968,0.5983,0.5987,0.5991,0.5939,0.5939,0.5939,0,0,0.5845,0.585,0.5867,0.5873,0.5883,0.5886,0.589,0.5899,0.5902,0.5921,0.5917,0.593,0.5951,0.596,0.5967,0.5997,0.5993,0.6001,0.6017,0.6032,0.6036,0.6039,0.6052,0.6056,0.6003,0.6003,0.6003,0,0.5856,0.5876,0.5875,0.5891,0.5899,0.5893,0.5911,0.5917,0.5931,0.5937,0.593,0.5959,0.5965,0.5991,0.5998,0.6003,0.6009,0.6,0.6035,0.6038,0.6041,0.6054,0.6058,0.6004,0.6004,0.6004,0.6004,0,0.589,0.5904,0.5916,0.593,0.5939,0.5955,0.5958,0.5967,0.5966,0.597,0.5991,0.5999,0.6013,0.6019,0.6018,0.6045,0.6041,0.6035,0.6023,0.6047,0.6058,0.6063,0.6006,0.6005,0.6005,0.6005,0,0,0.5922,0.5936,0.5941,0.5948,0.5959,0.597,0.5987,0.6002,0.6011,0.602,0.6036,0.6055,0.605,0.6058,0.6058,0.607,0.6097,0.6062,0.6063,0.607,0.6129,0.6135,0.6141,0.6094,0.6095,0.6095,0.6129,0,0.5949,0.5978,0.5979,0.6006,0.602,0.6016,0.6031,0.604,0.6044,0.6057,0.6062,0.6077,0.6067,0.6073,0.6085,0.6091,0.6109,0.6088,0.6109,0.611,0.6108,0.6146,0.6152,0.6183,0.6133,0.6134,0.6135,0,0.5984,0.5996,0.6025,0.6036,0.6042,0.6055,0.607,0.6082,0.6093,0.6095,0.6105,0.6104,0.6122,0.6109,0.6136,0.6122,0.6131,0.6135,0.6136,0.6139,0.6125,0.6152,0.6193,0.6199,0.6141,0.6141,0.614,0,0.6007,0.603,0.605,0.6056,0.6069,0.6079,0.6085,0.6096,0.6105,0.6118,0.6124,0.6139,0.6147,0.6159,0.6162,0.6152,0.619,0.6176,0.6193,0.6194,0.6202,0.6202,0.6247,0.6206,0.6205,0.6205,0.6205,0,0.6038,0.6056,0.6061,0.6074,0.6095,0.6096,0.6117,0.6122,0.6132,0.6146,0.6143,0.6158,0.616,0.6175,0.6178,0.6201,0.6204,0.6207,0.6208,0.6208,0.6208,0.6215,0.6213,0.6207,0.6206,0.6206,0.6206,0,0.6067,0.607,0.6093,0.6104,0.6107,0.6122,0.6132,0.6145,0.6149,0.6168,0.6173,0.618,0.6197,0.6202,0.6222,0.6224,0.6252,0.625,0.6248,0.6249,0.6266,0.6265,0.6319,0.6327,0.6278,0.6279,0.6279,0,0.6087,0.6101,0.6114,0.6123,0.613,0.6145,0.6155,0.6158,0.6168,0.6183,0.6195,0.6212,0.6226,0.6255,0.6263,0.6279,0.6278,0.6296,0.6281,0.6281,0.6281,0.628,0.6283,0.6299,0.63,0.63,0.63,0,0.6123,0.6125,0.6138,0.6154,0.6166,0.6178,0.619,0.6198,0.6202,0.6214,0.6233,0.6244,0.6266,0.6284,0.6301,0.6308,0.6306,0.6305,0.631,0.6311,0.6311,0.6313,0.6258,0.6304,0.6304,0.6303,0.6303,0.6303,0.6149,0.6162,0.6174,0.619,0.6199,0.6211,0.6224,0.6231,0.6246,0.6264,0.6264,0.6285,0.6298,0.632,0.6329,0.6346,0.634,0.6347,0.6349,0.6351,0.6354,0.6307,0.6348,0.6348,0.6348,0.6348,0.6348,0,0.6187,0.6194,0.6209,0.6226,0.6239,0.6236,0.6249,0.6261,0.6279,0.629,0.6305,0.6327,0.6345,0.6354,0.6373,0.6385,0.6384,0.6389,0.6389,0.6392,0.6357,0.6351,0.639,0.639,0.639,0.639,0.639,0.639,0.6208,0.623,0.6234,0.6261,0.6269,0.6289,0.6297,0.6309,0.6318,0.6343,0.6358,0.6364,0.6376,0.6395,0.6412,0.6414,0.6422,0.6428,0.643,0.6398,0.6394,0.639,0.6385,0.6429,0.643,0.6464,0.6464,0.6464]},{"header":{"parameterUnit":"m.s-1","parameterCategory":1,"la1":30.2991,"la2":30.254,"lo1":-89.0895,"lo2":-89.0444,"dy":0.0017,"dx":0.0017,"nx":28,"ny":28,"refTime":"2024-03-27T03:00:00:Z","depth":0,"parameterNumber":3,"parameterNumberName":"V-component_of_WINDS"},"data":[0,0,0,0,0,0,0,0,0,0,0,0,0,0,0,0,0,0,0,0,0,0,0,0,0,0,0,0,0,0,0,0,0,0,0,0,0,0,0,0,0,0,0,0,0,0,0,0,0,0,0,0,0,0,0,0,0,0,-3.5023,-3.5023,0,-3.5056,-3.5056,-3.5057,-3.5013,-3.5012,-3.501,-3.5009,-3.5046,-3.5048,-3.5051,0,0,0,0,0,0,0,0,0,0,0,0,0,-3.4921,-3.4923,-3.5023,-3.5023,-3.5023,-3.5056,-3.5056,-3.5057,-3.5014,-3.5012,-3.501,-3.5008,-3.5045,-3.5048,-3.5051,0,0,0,0,0,0,0,0,0,0,0,0,0,-3.4961,-3.4924,-3.5022,-3.5006,-3.5004,-3.5056,-3.5056,-3.5057,-3.5014,-3.5012,-3.5009,-3.5007,-3.5044,-3.5048,-3.5051,-3.5121,0,0,-3.5062,-3.5064,0,0,0,0,0,0,0,0,-3.4959,-3.4965,-3.5008,-3.5007,-3.5006,-3.5028,-3.5034,-3.5079,-3.5015,-3.5011,-3.5009,-3.5006,-3.5042,-3.5046,-3.5057,-3.5123,-3.5125,-3.5063,-3.5065,-3.5067,-3.5068,0,0,0,0,0,0,0,-3.4956,-3.4963,-3.5036,-3.5008,-3.5007,-3.4996,-3.5,-3.5042,-3.5039,-3.5011,-3.5008,-3.5012,-3.5041,-3.5054,-3.5058,-3.5125,-3.5063,-3.5066,-3.5068,-3.507,-3.5249,-3.5251,0,0,0,0,0,0,-3.4955,-3.4961,-3.5035,-3.5037,-3.4976,-3.5,-3.5004,-3.5023,-3.5039,-3.5039,-3.5014,-3.501,-3.5049,-3.5054,-3.5059,-3.5142,-3.5067,-3.507,-3.5072,-3.5246,-3.525,-3.5252,0,0,0,0,0,0,-3.4953,-3.4962,-3.5033,-3.4998,-3.5006,-3.5004,-3.5027,-3.5025,-3.5038,-3.5041,-3.504,-3.5028,-3.5047,-3.5054,-3.5106,-3.5143,-3.5072,-3.5075,-3.5243,-3.5247,-3.5251,-3.5309,0,0,0,0,0,0,-3.4951,-3.4962,-3.4989,-3.4999,-3.5008,-3.508,-3.5029,-3.5028,-3.5044,-3.5039,-3.5054,-3.5054,-3.5046,-3.51,-3.5109,-3.5146,-3.5078,-3.524,-3.5245,-3.525,-3.5304,-3.5314,-3.5323,0,0,0,0,0,-3.4947,-3.5005,-3.499,-3.5,-3.5042,-3.5082,-3.5087,-3.5076,-3.5047,-3.5074,-3.5076,-3.5054,-3.5136,-3.5106,-3.5116,-3.5155,-3.5238,-3.5244,-3.5249,-3.5299,-3.5312,-3.5323,0,0,0,0,0,0,-3.5001,-3.5006,-3.499,-3.5053,-3.5067,-3.5075,-3.5109,-3.509,-3.5114,-3.5108,-3.5093,-3.5097,-3.5152,-3.5158,-3.5124,-3.5222,-3.5183,-3.519,-3.5217,-3.5229,-3.5239,-3.5237,-3.5081,0,0,0,0,0,-3.5019,-3.5051,-3.5054,-3.5109,-3.5117,-3.5111,-3.5128,-3.5118,-3.5132,-3.5139,-3.5144,-3.516,-3.5189,-3.5209,-3.5236,-3.5303,-3.5306,-3.5334,-3.5344,-3.5352,-3.536,-3.5395,-3.5407,-3.5271,-3.5271,-3.5271,0,0,-3.5059,-3.5066,-3.5087,-3.512,-3.513,-3.5163,-3.5117,-3.5155,-3.5179,-3.5145,-3.5194,-3.5198,-3.5214,-3.5274,-3.53,-3.5281,-3.5397,-3.5359,-3.5366,-3.5369,-3.5402,-3.5415,-3.5426,-3.5275,-3.5274,-3.5274,0,0,-3.5149,-3.5157,-3.5203,-3.5213,-3.5228,-3.5223,-3.5234,-3.5244,-3.5245,-3.5294,-3.5268,-3.5297,-3.5348,-3.5361,-3.5374,-3.5464,-3.5445,-3.5473,-3.5525,-3.5559,-3.557,-3.558,-3.5612,-3.5624,-3.5481,-3.5481,-3.5481,0,-3.5197,-3.5246,-3.523,-3.5268,-3.5283,-3.5251,-3.5297,-3.5308,-3.5332,-3.5343,-3.5319,-3.5381,-3.539,-3.5452,-3.5474,-3.5485,-3.5497,-3.5473,-3.557,-3.5579,-3.5588,-3.5619,-3.5631,-3.5484,-3.5484,-3.5483,-3.5483,0,-3.5304,-3.5338,-3.5374,-3.5395,-3.5414,-3.5456,-3.5446,-3.5467,-3.5453,-3.5451,-3.55,-3.5509,-3.5537,-3.555,-3.5539,-3.561,-3.5597,-3.5572,-3.5532,-3.5604,-3.5634,-3.5645,-3.5489,-3.5488,-3.5487,-3.5486,0,0,-3.5433,-3.5442,-3.5456,-3.5464,-3.5476,-3.5503,-3.5542,-3.5568,-3.5586,-3.5602,-3.5636,-3.5678,-3.5654,-3.5669,-3.5658,-3.5688,-3.5759,-3.5659,-3.5659,-3.5678,-3.5838,-3.5858,-3.5872,-3.5744,-3.5747,-3.5748,-3.5837,0,-3.5523,-3.5592,-3.5577,-3.5645,-3.5676,-3.5644,-3.5678,-3.569,-3.5688,-3.5714,-3.5711,-3.5742,-3.5708,-3.5716,-3.5744,-3.5744,-3.5791,-3.5737,-3.5777,-3.5778,-3.5776,-3.5887,-3.5909,-3.5992,-3.5848,-3.585,-3.5851,0,-3.5639,-3.5658,-3.5729,-3.5733,-3.5746,-3.5778,-3.5799,-3.5823,-3.5835,-3.5831,-3.5846,-3.5828,-3.5868,-3.5825,-3.5879,-3.5843,-3.5858,-3.586,-3.5862,-3.5868,-3.5821,-3.5896,-3.6018,-3.6031,-3.5869,-3.5867,-3.5866,0,-3.5727,-3.5769,-3.5817,-3.5825,-3.5832,-3.5855,-3.5859,-3.5867,-3.5883,-3.5902,-3.5912,-3.5935,-3.5948,-3.5966,-3.5955,-3.5925,-3.6011,-3.5968,-3.601,-3.6011,-3.6032,-3.6032,-3.616,-3.6039,-3.6039,-3.6038,-3.6038,0,-3.5831,-3.5876,-3.5856,-3.5886,-3.5934,-3.5915,-3.5964,-3.5964,-3.5971,-3.6,-3.5974,-3.6001,-3.5984,-3.601,-3.6001,-3.6048,-3.6054,-3.6052,-3.605,-3.6056,-3.6056,-3.6067,-3.6062,-3.6042,-3.6041,-3.604,-3.604,0,-3.5939,-3.5927,-3.5977,-3.5978,-3.5979,-3.6015,-3.6016,-3.6043,-3.6037,-3.6074,-3.6082,-3.6074,-3.6103,-3.6092,-3.6124,-3.6118,-3.6177,-3.6167,-3.6174,-3.6172,-3.6215,-3.6212,-3.6356,-3.6374,-3.624,-3.6241,-3.6242,0,-3.6007,-3.6041,-3.6044,-3.6061,-3.6066,-3.6093,-3.6108,-3.609,-3.6107,-3.612,-3.6146,-3.6172,-3.6192,-3.6241,-3.6238,-3.6262,-3.6252,-3.6301,-3.6256,-3.626,-3.6254,-3.6253,-3.6257,-3.6311,-3.6313,-3.6314,-3.6315,0,-3.613,-3.6121,-3.6144,-3.6163,-3.6182,-3.6197,-3.6209,-3.6225,-3.6206,-3.6226,-3.6255,-3.627,-3.6301,-3.6328,-3.6348,-3.6353,-3.6332,-3.6328,-3.634,-3.6348,-3.6351,-3.635,-3.62,-3.6326,-3.6325,-3.6324,-3.6324,-3.6323,-3.6221,-3.6249,-3.6255,-3.628,-3.6286,-3.6298,-3.6323,-3.6319,-3.6342,-3.6365,-3.6352,-3.6385,-3.6394,-3.6419,-3.6425,-3.6451,-3.6433,-3.6449,-3.6453,-3.6458,-3.6464,-3.6344,-3.6455,-3.6455,-3.6454,-3.6454,-3.6454,0,-3.6343,-3.6345,-3.6367,-3.6385,-3.6404,-3.6379,-3.6391,-3.6409,-3.6438,-3.6447,-3.6466,-3.6498,-3.6523,-3.6521,-3.6544,-3.6565,-3.6555,-3.6572,-3.6571,-3.6572,-3.6479,-3.6468,-3.6579,-3.6579,-3.6579,-3.6579,-3.6579,-3.6579,-3.641,-3.6455,-3.6446,-3.6494,-3.6495,-3.6526,-3.6535,-3.6545,-3.6552,-3.6588,-3.6608,-3.6605,-3.6609,-3.6631,-3.6653,-3.6651,-3.6662,-3.6682,-3.6678,-3.6591,-3.6579,-3.6567,-3.6556,-3.6684,-3.6684,-3.6768,-3.6769,-3.677]}]]